This is the latest recevied weather packets stored in our database for station/object AA7VG. If no packets are shown the sender has not sent any weather packets the latest 10 day(s).
| Time | Temp. | Humidity | Pressure | Rain* | Wind** | Luminosity | Snow |
|---|---|---|---|---|---|---|---|
| 1777917941 | 15° C | 34% | 1013 hPa | 0 mm | - | - | - |
| 1777917640 | 15° C | 34% | 1013 hPa | 0 mm | - | - | - |
| 1777917337 | 14.44° C | 34% | 1012.9 hPa | 0 mm | - | - | - |
| 1777917034 | 15° C | 33% | 1012.9 hPa | 0 mm | - | - | - |
| 1777916732 | 14.44° C | 33% | 1013.3 hPa | 0 mm | - | - | - |
| 1777916428 | 15° C | 33% | 1013.1 hPa | 0 mm | - | - | - |
| 1777916125 | 15° C | 33% | 1013 hPa | 0 mm | - | - | - |
| 1777915822 | 14.44° C | 33% | 1012.9 hPa | 0 mm | - | - | - |
| 1777915518 | 15° C | 33% | 1013.3 hPa | 0 mm | - | - | - |
| 1777915215 | 14.44° C | 35% | 1013.3 hPa | 0 mm | - | - | - |
| 1777914912 | 14.44° C | 35% | 1013.1 hPa | 0 mm | - | - | - |
| 1777914609 | 15° C | 33% | 1013.4 hPa | 0 mm | - | - | - |
| 1777914305 | 13.89° C | 35% | 1013.4 hPa | 0 mm | - | - | - |
| 1777914003 | 13.89° C | 35% | 1013.4 hPa | 0 mm | - | - | - |
| 1777913698 | 13.89° C | 35% | 1013.4 hPa | 0 mm | - | - | - |
| 1777913395 | 13.89° C | 35% | 1013.4 hPa | 0 mm | - | - | - |
| 1777913092 | 13.33° C | 36% | 1013.6 hPa | 0 mm | - | - | - |
| 1777912788 | 13.89° C | 36% | 1013.4 hPa | 0 mm | - | - | - |
| 1777912484 | 13.89° C | 36% | 1013.3 hPa | 0 mm | - | - | - |
| 1777912181 | 13.89° C | 36% | 1013.3 hPa | 0 mm | - | - | - |
| 1777911877 | 13.89° C | 34% | 1013.4 hPa | 0 mm | - | - | - |
| 1777911574 | 12.78° C | 36% | 1013.3 hPa | 0 mm | - | - | - |
| 1777911270 | 12.78° C | 37% | 1013.5 hPa | 0 mm | - | - | - |
| 1777910967 | 12.78° C | 38% | 1013.5 hPa | 0 mm | - | - | - |
| 1777910665 | 13.33° C | 38% | 1013.7 hPa | 0 mm | - | - | - |
* Rain latest hour (hover to see other rain measurements)
** Current wind speed in m/s (hover to see current wind gust speed)